Sussex, NJ

1:49 PM EST on November 22, 2019 (GMT -0500)
Sussex

Weather History for KFWN - September, 2019

Change the Weather History Date:

Sunday, September 15, 2019

  Actual Average Record
Temperature  
Mean Temperature 70 °F -  
Max Temperature 81 °F 74 °F 89 °F (1961)
Min Temperature 60 °F 49 °F 32 °F (1975)
Cooling Degree Days 6    
Growing Degree Days 20 (Base 50)    
Moisture  
Dew Point 59 °F    
Average Humidity 77    
Maximum Humidity 97    
Minimum Humidity 38    
Precipitation  
Precipitation 0.01 in - - ()
Sea Level Pressure  
Sea Level Pressure 30.14 in    
Wind  
Wind Speed 1 mph ()    
Max Wind Speed 9 mph    
Max Gust Speed -    
Visibility 5.9 miles    
Events Fog    
Averages and records for this station are not official NWS values.
T = Trace of Precipitation, MM = Missing Value Source: Averaged Metar Reports

Daily Weather History Graph

Daily Weather History Graph

Search for Another Location

Airport or City:

Astronomy

Sep. 15, 2019 Rise Set
Actual Time 6:38 AM EDT 7:08 PM EDT
Civil Twilight 6:10 AM EDT 7:35 PM EDT
Nautical Twilight 5:38 AM EDT 8:08 PM EDT
Astronomical Twilight 5:04 AM EDT 8:41 PM EDT
Moon 8:14 PM EDT (9/15) 7:46 AM EDT (9/15)
Length of Visible Light 13h 24m
Length of Day
12h 29m
Full, 98% of the Moon is Illuminated
Sep 15
Full
Sep 21
Last Quarter
Sep 28
New
Oct 5
First Quarter
Oct 13
Full

Hourly Weather History & Observations

Time (EDT) Temp. Heat Index Dew Point Humidity Pressure Visibility Wind Dir Wind Speed Gust Speed Precip Events Conditions
12:09 AM 64.0 °F - 62.1 °F 93% 30.17 in 0.5 mi Calm Calm - N/A Fog Fog
12:53 AM 63.0 °F - 62.1 °F 97% 30.17 in 0.2 mi Calm Calm - N/A Fog Fog
1:53 AM 64.0 °F - 63.0 °F 96% 30.18 in 1.0 mi Calm Calm - N/A   Mist
2:00 AM 64.0 °F - 63.0 °F 96% 30.18 in 0.5 mi Calm Calm - N/A Fog Fog
2:53 AM 64.0 °F - 63.0 °F 96% 30.17 in 0.5 mi Calm Calm - N/A Fog Fog
3:53 AM 64.0 °F - 63.0 °F 96% 30.16 in 0.2 mi Calm Calm - 0.00 in Fog Fog
4:53 AM 63.0 °F - 62.1 °F 97% 30.17 in 0.2 mi Calm Calm - 0.01 in Fog Fog
5:53 AM 63.0 °F - 61.0 °F 93% 30.18 in 0.2 mi Calm Calm - N/A Fog Fog
6:53 AM 61.0 °F - 59.0 °F 93% 30.18 in 0.2 mi Calm Calm - N/A Fog Fog
7:53 AM 61.0 °F - 60.1 °F 97% 30.19 in 0.2 mi Calm Calm - 0.00 in Fog Fog
8:53 AM 62.1 °F - 61.0 °F 96% 30.19 in 0.8 mi Calm Calm - N/A   Overcast
9:00 AM 63.0 °F - 62.1 °F 97% 30.19 in 1.8 mi Calm Calm - N/A   Overcast
9:12 AM 64.9 °F - 63.0 °F 93% 30.19 in 10.0 mi East 3.5 mph - N/A   Mostly Cloudy
9:53 AM 69.1 °F - 61.0 °F 75% 30.19 in 10.0 mi ENE 4.6 mph - N/A   Partly Cloudy
10:53 AM 73.0 °F - 59.0 °F 61% 30.18 in 10.0 mi Variable 4.6 mph - N/A   Clear
11:53 AM 75.0 °F - 54.0 °F 48% 30.17 in 10.0 mi Variable 6.9 mph - N/A   Clear
12:53 PM 77.0 °F - 52.0 °F 42% 30.14 in 10.0 mi Variable 5.8 mph - N/A   Clear
1:53 PM 78.1 °F - 54.0 °F 43% 30.12 in 10.0 mi SW 3.5 mph - N/A   Clear
2:53 PM 80.1 °F 80.1 °F 55.0 °F 42% 30.10 in 10.0 mi West 9.2 mph - N/A   Clear
3:53 PM 81.0 °F 80.5 °F 54.0 °F 39% 30.09 in 10.0 mi West 5.8 mph - N/A   Clear
4:53 PM 79.0 °F - 51.1 °F 38% 30.09 in 10.0 mi Variable 3.5 mph - N/A   Clear
5:53 PM 78.1 °F - 53.1 °F 42% 30.09 in 10.0 mi Calm Calm - N/A   Clear
6:53 PM 72.0 °F - 57.9 °F 61% 30.09 in 10.0 mi Calm Calm - N/A   Scattered Clouds
7:53 PM 66.0 °F - 59.0 °F 78% 30.09 in 10.0 mi Calm Calm - N/A   Mostly Cloudy
8:53 PM 64.0 °F - 59.0 °F 84% 30.09 in 10.0 mi Calm Calm - N/A   Clear
9:53 PM 61.0 °F - 57.9 °F 90% 30.09 in 10.0 mi SW 5.8 mph - N/A   Clear
10:53 PM 60.1 °F - 57.0 °F 90% 30.09 in 10.0 mi Calm Calm - N/A   Clear
11:53 PM 60.1 °F - 57.0 °F 90% 30.08 in 10.0 mi Calm Calm - N/A   Clear